Regional Weather Roundup
Issued by NWS Little Rock, AR

Home | Current Version | Previous Version | Graphics & Text | Print | Product List | Glossary On
Versions: 1 2 3 4 5 6 7 8 9 10 11 12 13 14 15 16 17 18 19 20 21 22 23 24 25 26 27 28 29 30 31 32 33 34 35 36 37 38 39 40 41 42 43 44 45 46 47 48 49 50
169
ASUS44 KLZK 010605
RWRLZK

WEATHER ROUNDUP FOR ARKANSAS
NATIONAL WEATHER SERVICE LITTLE ROCK AR
1200 AM CST WED MAR 01 2017

NOTE: "FAIR" INDICATES FEW OR NO CLOUDS BELOW 12,000 FEET WITH NO
SIGNIFICANT WEATHER AND/OR OBSTRUCTIONS TO VISIBILITY.

ARZ001-003-010-029-010700-
NORTHWEST ARKANSAS

CITY           SKY/WX    TMP DP  RH WIND       PRES   REMARKS
FAYETTEVILLE   CLOUDY    70  63  78 S17G26    29.66F
6HR MIN TEMP:  69; 6HR MAX TEMP:  70;

FORT SMITH     MOCLDY    75  61  61 SW20G29   29.67R
6HR MIN TEMP:  75; 6HR MAX TEMP:  77;

HARRISON       CLOUDY    70  61  73 S17G28    29.66F
6HR MIN TEMP:  70; 6HR MAX TEMP:  72;

BENTONVILLE    CLOUDY    70  61  73 SW16G24   29.65F
6HR MIN TEMP:  70; 6HR MAX TEMP:  70;

ROGERS         MOCLDY    69  62  78 SW21G30   29.64F
6HR MIN TEMP:  69; 6HR MAX TEMP:  70;

SILOAM SPGS    MOCLDY    70  61  73 SW20G28   29.65R
6HR MIN TEMP:  68; 6HR MAX TEMP:  70;

HIGHFILL       MOCLDY    70  62  76 S18G28    29.63F
6HR MIN TEMP:  70; 6HR MAX TEMP:  71;

$$

ARZ004-005-016-010700-
NORTH CENTRAL ARKANSAS

CITY           SKY/WX    TMP DP  RH WIND       PRES   REMARKS
BATESVILLE     CLOUDY    70  61  73 SW18G29   29.73F
6HR MIN TEMP:  68; 6HR MAX TEMP:  73;

FLIPPIN        CLOUDY    72  59  64 S16G23    29.64F
6HR MIN TEMP:  72; 6HR MAX TEMP:  75;

MTN HOME       CLOUDY    71  62  73 SW16G28   29.66F
6HR MIN TEMP:  69; 6HR MAX TEMP:  73;

$$

ARZ040-041-010700-
WEST CENTRAL ARKANSAS

CITY           SKY/WX    TMP DP  RH WIND       PRES   REMARKS
MENA           CLOUDY    72  70  94 SW9G20    29.78R
MOUNT IDA      CLOUDY    72  63  73 VRB7G18   29.75R
6HR MIN TEMP:  71; 6HR MAX TEMP:  75; 6HR PCP: TRACE;

$$

ARZ009-017-025-026-028-010700-
NORTHEAST ARKANSAS

CITY           SKY/WX    TMP DP  RH WIND       PRES   REMARKS
CORNING        CLOUDY    70  64  83 SW18G29   29.73R
JONESBORO      MOCLDY    71  63  75 SW23G31   29.74F
6HR MIN TEMP:  68; 6HR MAX TEMP:  75; 6HR PCP:  0.40;

NEWPORT        MOCLDY    70  64  81 S21G26      N/A
6HR MIN TEMP:  67; 6HR MAX TEMP:  72;

WALNUT RIDGE   MOCLDY    70  61  73 S20       29.74R
6HR MIN TEMP:  68; 6HR MAX TEMP:  72;

BLYTHEVILLE    CLOUDY    72  63  73 S25G33    29.78F
6HR MIN TEMP:  71; 6HR MAX TEMP:  75; 6HR PCP:  0.07;

$$

ARZ022-023-033-042-044-010700-
CENTRAL ARKANSAS

CITY           SKY/WX    TMP DP  RH WIND       PRES   REMARKS
LITTLE ROCK    CLOUDY    70  64  81 S17G31    29.79S
6HR MIN TEMP:  70; 6HR MAX TEMP:  75;

N LITTLE ROCK    N/A     70  64  80 SW14G28   29.78S
6HR MIN TEMP:  70; 6HR MAX TEMP:  75;

JACKSONVILLE   CLOUDY    72  65  78 S14G23    29.78R
6HR MIN TEMP:  72; 6HR MAX TEMP:  76;

SEARCY         CLOUDY    70  65  84 S12G21    29.78S
6HR MIN TEMP:  65; 6HR MAX TEMP:  76; 6HR PCP:  0.84;

HOT SPRINGS    MOCLDY    71  65  81 SW13      29.77F
6HR MIN TEMP:  71; 6HR MAX TEMP:  75;

RUSSELLVILLE   CLOUDY    72  62  71 S14G24    29.69F
6HR MIN TEMP:  72; 6HR MAX TEMP:  76;

CLINTON        CLOUDY    72  63  73 VRB5G12   29.73F
$$

ARZ036-010700-
EAST ARKANSAS

CITY           SKY/WX    TMP DP  RH WIND       PRES   REMARKS
WEST MEMPHIS   PTCLDY    72  64  76 S20G29    29.81F
6HR MIN TEMP:  72; 6HR MAX TEMP:  74;

$$

ARZ050-053-066-070-073-010700-
SOUTHWEST ARKANSAS

CITY           SKY/WX    TMP DP  RH WIND       PRES   REMARKS
ARKADELPHIA    FAIR      71  66  84 S12       29.79F
6HR MIN TEMP:  70; 6HR MAX TEMP:  75;

CAMDEN         PTCLDY    72  63  73 S10G17    29.81F
TEXARKANA      PTCLDY    70  66  87 S17G26    29.80S
6HR MIN TEMP:  70; 6HR MAX TEMP:  76;

EL DORADO      PTCLDY    72  66  81 S18G31    29.84F
6HR MIN TEMP:  71; 6HR MAX TEMP:  77;

DE QUEEN       CLOUDY    71  66  84 S9        29.75S
6HR MIN TEMP:  71; 6HR MAX TEMP:  75;

$$

ARZ056-057-069-010700-
SOUTHEAST ARKANSAS

CITY           SKY/WX    TMP DP  RH WIND       PRES   REMARKS
PINE BLUFF     CLEAR     69  64  84 S13       29.83F
6HR MIN TEMP:  69; 6HR MAX TEMP:  75;

STUTTGART      MOCLDY    70  59  68 S21       29.83S
6HR MIN TEMP:  70; 6HR MAX TEMP:  75;

MONTICELLO     MOCLDY    72  65  78 S14G21    29.85F
6HR MIN TEMP:  71; 6HR MAX TEMP:  75;


$$






USA.gov is the U.S. government's official web portal to all federal, state and local government web resources and services.